Regional Weather Roundup
Issued by NWS Wakefield, VA

Current Version | Previous Version | Text Only | Print | Product List | Glossary Off
Versions: 1 2 3 4 5 6 7 8 9 10 11 12 13 14 15 16 17 18 19 20 21 22 23 24 25 26 27 28 29 30 31 32 33 34 35 36 37 38 39 40 41 42 43 44 45 46 47 48 49 50

000
ASUS41 KAKQ 061315
RWRAKQ

REGIONAL WEATHER ROUNDUP
NATIONAL WEATHER SERVICE WAKEFIELD VA
900 AM EDT MON JUL 06 2015

Note: "fair" indicates few or no clouds below 12,000 feet with no
significant weather and/or obstructions to visibility. * = Denotes
station may not report precipitation (e.g., rain,snow,etc.),
thunder or fog.

VAZ042-051-052>054-056-061400-
NORTHERN VIRGINIA

CITY           SKY/WX    TMP DP  RH WIND       PRES   REMARKS
WASH NATIONAL  NOT AVBL
DULLES         NOT AVBL
FORT BELVOIR   PTSUNNY   76  73  92 SE6       30.12S
QUANTICO       PTSUNNY   77  70  79 SW12      30.13R
FREDERICKSBRG* NOT AVBL
STAFFORD*      NOT AVBL
WARRENTON      NOT AVBL
CULPEPER*      NOT AVBL
MANASSAS*      NOT AVBL
LEESBURG*      NOT AVBL
WINCHESTER     NOT AVBL
FRONT ROYAL*   NOT AVBL
LURAY*         NOT AVBL
$$

VAZ048-049-060>072-079>083-061400-
CENTRAL AND SOUTH CENTRAL VIRGINIA

CITY           SKY/WX    TMP DP  RH WIND       PRES   REMARKS
RICHMOND       NOT AVBL
CHESTERFIELD*  NOT AVBL
PETERSBURG*    NOT AVBL
HANOVER        NOT AVBL
TAPPAHANNOCK*  NOT AVBL
QUINTON*       NOT AVBL
CHARLOTTSVILLE NOT AVBL
GORDONSVILLE*  NOT AVBL
ORANGE*        NOT AVBL
LOUISA*        NOT AVBL
BUMPASS*       NOT AVBL
FARMVILLE*     NOT AVBL
CREWE*         NOT AVBL
FORT PICKETT*  NOT AVBL
CHASE CITY*    NOT AVBL
CLARKSVILLE*   NOT AVBL
SOUTH HILL*    NOT AVBL
LAWRENCEVILLE* NOT AVBL
EMPORIA*       NOT AVBL
$$

VAZ088>098-061400-
SOUTHEAST VIRGINIA

CITY           SKY/WX    TMP DP  RH WIND       PRES   REMARKS
NORFOLK        NOT AVBL
VIRGINIA BEACH PTSUNNY   82  72  71 S3        30.13R
NORFOLK NAVAL  PTSUNNY   78  73  84 S8        30.15R
WEST POINT*    NOT AVBL
SALUDA*        NOT AVBL
NEWPORT NEWS   NOT AVBL
LANGLEY AFB    PTSUNNY   78  73  82 S6        30.12S
FORT EUSTIS    MOSUNNY   78  78 100 S8        30.12R
WILLIAMSBURG*  NOT AVBL
HR EXEC AP*    NOT AVBL
FRANKLIN*      NOT AVBL
WAKEFIELD      NOT AVBL
$$

VAZ020-022-025-037-045-061400-
WEST CENTRAL AND SOUTHWEST VIRGINIA

CITY           SKY/WX    TMP DP  RH WIND       PRES   REMARKS
STAUNTON*      NOT AVBL
WAYNESBORO*    NOT AVBL
HOT SPRINGS VA NOT AVBL
LYNCHBURG      NOT AVBL
DANVILLE       NOT AVBL
SOUTH BOSTON*  NOT AVBL
MARTINSVILLE   NOT AVBL
ROANOKE        NOT AVBL
BLACKSBURG     NOT AVBL
DUBLIN*        NOT AVBL
MARION*        NOT AVBL
HILLSVILLE*    NOT AVBL
RICHLANDS*     NOT AVBL
WISE*          NOT AVBL
ABINGDON*      NOT AVBL
$$

MDZ021>025-VAZ099-100-061400-
SOUTHERN MARYLAND AND THE DELMARVA PENINSULA

CITY           SKY/WX    TMP DP  RH WIND       PRES   REMARKS
PATUXENT RIVER PTSUNNY   77  71  82 S9        30.12R
BAY BRIDGE APT NOT AVBL
LEONARDTOWN    NOT AVBL
DOVER          PTSUNNY   76  75  97 S10       30.12R
GEORGETOWN     NOT AVBL
EASTON         NOT AVBL
CAMBRIDGE      NOT AVBL
SALISBURY      NOT AVBL
OCEAN CITY     NOT AVBL
WALLOPS ISLAND NOT AVBL
ACCOMACK*      NOT AVBL
$$

NCZ012>017-030>032-061400-
NORTH CENTRAL AND EASTERN NORTH CAROLINA

CITY           SKY/WX    TMP DP  RH WIND       PRES   REMARKS
ROANOKE RAPIDS NOT AVBL
RALEIGH        NOT AVBL
ELIZABETH CITY NOT AVBL
AHOSKIE*       NOT AVBL
EDENTON*       NOT AVBL
CURRITUCK*     NOT AVBL
KILL DEVIL HLS NOT AVBL
MANTEO         NOT AVBL
CAPE HATTERAS  NOT AVBL
TARBORO*       NOT AVBL
GOLDSBORO      MOSUNNY   80  73  79 S2        30.12R
WASHINGTON     NOT AVBL
GREENVILLE     NOT AVBL
NEW BERN       NOT AVBL
WILMINGTON     NOT AVBL
$$

VAZ048-061400-
ELSEWHERE

CITY           SKY/WX    TMP DP  RH WIND       PRES   REMARKS
HARRISBURG PA  NOT AVBL
BALTIMORE      NOT AVBL
ANNAPOLIS      PTSUNNY   76  72  87 SE10      30.12S
ANDREWS AFB    CLOUDY    76  76 100 SE6       30.12S
PHILADELPHIA   NOT AVBL
GREENSBORO     NOT AVBL
ROCKY MOUNT    NOT AVBL
$$

VAZ100-061400-
MARINE

STATION/POSITION TIME  TEMP    WIND        PRES    WAVE   SWELL
                       AIR SEA DIR/SP/G            HT/PER HT/PER
                 (UTC) (F)     (DEG/KT/KT) (MB)    (FT/S) (FT/S)
BRANDYWINE LGT   1200   74 74  140/  9/ 10 1020.5R
CAPE MAY NJ      1200   75 77  120/  6/  7 1020.1R
LEWES DE         1200   76 73  160/  8/ 11 1020.0R
15NM E FENWICK I 1250   75 74              1020.2R   2/ 6
OCEAN-CITY-INLET 1200   76 75  170/  4/  6 1020.0R
WACHAPREAGUE VA  1200   76 81  170/  5/  6 1020.2R
GOOSES REEF MD   1300   78 77  190/ 10/ 10 1020.8R
COVE POINT MD    1200   76     190/ 13/ 14 1020.3R
SOLOMONS ISLAND  1200      80                N/A
BISHOPS HEAD MD  1200   76     150/ 11/ 12 1019.7R
PINEY POINT MD   1200          210/  8/  8   N/A
CAMBRIDGE MD     1200   75 80  200/  5/  7 1019.7R
LEWISETTA VA     1200   75 80  200/  7/  7 1019.7R
RAPPAHANNOCK LGT 1200          180/  7/  8 1020.5R
STINGRAY PT      1300   79 80  190/ 10/ 16 1020.5R   1/ 3
YORK RVR RNG VA  1200   78     180/ 13/ 14 1019.5R
YORKTOWN VA      1200   75 80  190/  5/  8 1019.9R
JAMESTOWN VA     1300   76 82  140/  8/ 10   N/A
DOMINION TERM VA 1200   76     160/  9/ 10 1020.0R
KIPTOPEKE VA     1200      81  150/  9/ 11   N/A
CHES BAY BRIDGE  1200   77 78  150/  6/  8 1019.9R
CAPE HENRY VA    1200   77     140/  7/  9   N/A
CHESAPEAKE LGHT  1200   77     180/  8/  9 1020.8R
WILLOUBY STN VA  1200   76     150/  8/  9 1021.1R
CAPE HENRY BUOY  1228      78                N/A     2/13
1ST LANDING BUOY 1300      78              1020.2R   1/ 3
CAPE CHARLES BUO 1226      77                N/A     2/ 8   2/ 8
OFFSHORE WE BUOY 1211      77                N/A     2/13   2/13
64NM E OF VA BCH 1250   78 77  210/  8/ 10 1020.5R   3/ 8   3/ 8
DUCK PIER NC     1200   79 78  230/  9/ 12   N/A
44100 DUCK FRF   1224      78                N/A     2/13
44056 DUCK FRF   1211      78                N/A     2/13
OREGON INLET NC  1200   80 81  230/ 10/ 12 1020.8R
HATTERAS NC      1200   80 79  190/  3/  5 1021.0R
DIAMOND SHLS NC  1250   80 81  210/  8/ 10 1021.6R   3/ 9   2/ 9
CAPE LOOKOUT NC  1300   80     210/  5/  6 1021.2R
$$


USA.gov is the U.S. government's official web portal to all federal, state and local government web resources and services.